{"data":{"norad_id":69418,"intl_designator":"2026-125T","name":"QIANFAN-200","alt_names":[],"object_type":"PAYLOAD","status":"ACTIVE","operator":null,"country":"PRC","launch_date":"2026-06-05","launch_site_code":"WSC","launch_vehicle":null,"mission":null,"orbit_class":"UNKNOWN","rcs_meters":null,"size_class":null,"mass_kg":null,"dimensions":null,"purposes":[],"wikipedia_slug":null,"has_3d_model":false,"image_url":null,"decayed_at":null,"tle_current":{"epoch":"2026-09-20T02:55:04.692576Z","epoch_age_seconds":67200,"freshness":"FRESH","line1":"1 69418U 26125T   26263.12158209  .00000035  00000+0  36023-4 0  9996","line2":"2 69418  88.9884 270.3569 0002087 105.5752 254.5630 13.51026220 14764","mean_motion":13.5102622,"eccentricity":0.0002087,"inclination_deg":88.9884,"raan_deg":270.3569,"arg_perigee_deg":105.5752,"mean_anomaly_deg":254.563,"bstar":3.6023e-5,"rev_number":1476,"period_min":106.58564420756,"perigee_km":1066.9311268974,"apogee_km":1070.0393470191,"semimajor_km":7446.6222369582,"source":"CELESTRAK","updated_at":"2026-09-20T09:00:24.869418Z"}}}